Regional Weather Roundup
Issued by NWS

Home | Current Version | Previous Version | Text Only | Print | Product List | Glossary On
Versions: 1 2 3 4 5 6 7 8 9 10 11 12 13 14 15 16 17 18 19 20 21 22 23 24 25 26 27 28 29 30 31 32 33 34 35 36 37 38 39 40 41 42 43 44 45 46 47 48 49 50
000
ASUS43 KTOP 170359
RWRKS

WEATHER ROUNDUP FOR KANSAS
NATIONAL WEATHER SERVICE GOODLAND KS
1100 PM CDT MON OCT 16 2017

NOTE:  "FAIR" INDICATES FEW OR NO CLOUDS BELOW 12,000 FEET WITH NO
SIGNIFICANT WEATHER AND/OR OBSTRUCTIONS TO VISIBILITY.

KSZ001>006-013>018-027>032-041>047-170500-
NORTHWEST KANSAS

CITY           SKY/WX    TMP DP  RH WIND       PRES   REMARKS
GOODLAND       CLEAR     54  32  43 SW8       30.15S
HAYS           CLOUDY    54  36  50 S9        30.16S
HILL CITY      CLEAR     58  37  45 SW6       30.14R
RUSSELL        PTCLDY    56  40  55 S15       30.15S
$$

KSZ061>065-074>080-084>089-170500-
SOUTHWEST KANSAS

CITY           SKY/WX    TMP DP  RH WIND       PRES   REMARKS
DODGE CITY     CLEAR     57  34  41 S18       30.19S
ELKHART          N/A     56  35  45 S12         N/A
GARDEN CITY    CLEAR     49  36  61 SE8       30.17S
GREAT BEND     CLOUDY    56  39  53 S14       30.19S
LIBERAL        CLEAR     46  37  71 S10       30.20S
$$

KSZ066>073-081>083-090>101-170500-
SOUTHEAST KANSAS

CITY           SKY/WX    TMP DP  RH WIND       PRES   REMARKS
CHANUTE        CLEAR     48  41  76 S6        30.29S
COFFEYVILLE    CLEAR     47  44  90 CALM      30.29S
HUTCHINSON     PTCLDY    54  42  64 S9        30.22F
MEDICINE LODGE   N/A     53  40  61 S7        30.23S
NEWTON         CLEAR     53  40  61 S12       30.24F
PARSONS        CLEAR     45  42  89 CALM      30.30S
WICHITA INTL   CLEAR     53  42  66 S10       30.24F
WICHITA JABRA  CLEAR     52  41  66 S9        30.25F
WICHITA MCCONL CLEAR     54  39  57 S9        30.25F
WINFIELD       CLEAR     49  44  83 S7        30.28S
$$

KSZ007>012-019>026-033>040-048>060-102>105-170500-
NORTHEAST KANSAS

CITY           SKY/WX    TMP DP  RH WIND       PRES   REMARKS
CONCORDIA      MOCLDY    57  40  52 S18G24    30.15F
EMPORIA        CLEAR     50  40  68 S10       30.25F
LAWRENCE       CLEAR     48  42  80 SE5       30.25S
MANHATTAN      CLEAR     54  41  61 SW8       30.20F
OLATHE IND     CLEAR     48  41  76 S7        30.26F
OLATHE EXE     CLEAR     50  42  74 S6        30.26S
SALINA         PTCLDY    55  43  63 S12       30.20F
TOPEKA BILLARD CLEAR     54  43  66 S6        30.23F
TOPEKA FORBES  CLEAR     55  42  61 S9        30.23F
$$




USA.gov is the U.S. government's official web portal to all federal, state and local government web resources and services.